Regional Weather Roundup
Issued by NWS

Home | Current Version | Previous Version | Graphics & Text | Print | Product List | Glossary On
Versions: 1 2 3 4 5 6 7 8 9 10 11 12 13 14 15 16 17 18 19 20 21 22 23 24 25 26 27 28 29 30 31 32 33 34 35 36 37 38 39 40 41 42 43 44 45 46
000
ASUS45 KSLC 282110
RWRUT

UTAH REGIONAL WEATHER ROUNDUP
NATIONAL WEATHER SERVICE SALT LAKE CITY UT
300 PM MDT SAT MAR 28 2015

UTZ001>011-023>025-282200-

NORTHERN UTAH

CITY           SKY/WX    TMP DP  RH WIND       PRES   REMARKS
BRIGHAM CITY   CLOUDY    67  28  22 W3        30.12F
HILL AFB       PTSUNNY   69  24  18 W9G20     30.14F
LOGAN          SUNNY     66  36  32 W13G21    30.11S
OGDEN          CLOUDY    70  23  17 W15G22    30.11F
PROVO AIRPORT  MOSUNNY   73  32  21 W3        30.10F
SALT LAKE CITY PTSUNNY   72  24  16 NW14G23   30.10F
VERNAL         SUNNY     73  25  16 SW8       30.05F
WENDOVER       MOSUNNY   72  14  11 N8        30.12F
HEBER CITY     SUNNY     72  27  18 W12G21    30.12F
WEST JORDAN    SUNNY     72  34  25 NW14G21   30.12F

$$

UTZ012>022-026-027-282200-

SOUTHERN/CENTRAL UTAH

CITY           SKY/WX    TMP DP  RH WIND       PRES   REMARKS
BLANDING       SUNNY     72  23  16 S14G24    30.23F
BRYCE CANYON   SUNNY     67  21  17 NW8       30.26F
CEDAR CITY     SUNNY     75  20  12 S10       30.16F
DELTA          SUNNY     75  21  13 CALM      30.11F
HANKSVILLE     SUNNY     81  23  12 E5        30.07F
MILFORD        SUNNY     77  26  15 VRB6G18   30.10F
MOAB/CYNLANDS  SUNNY     78  21  12 SW12G21   30.05F
PRICE          SUNNY     74  23  15 S9G17     30.12F
ST GEORGE      CLEAR     81  28  15 W6        30.08F
KANAB          SUNNY     79  23  12 SW9       30.18F

$$

REGIONAL REPORTS     COLORADO/ARIZONA

CITY           SKY/WX    TMP DP  RH WIND       PRES   REMARKS
CRAIG, CO      MOSUNNY   73  25  16 W24G33    30.07F
GRAND JUNCTION SUNNY     75  26  16 NW15      30.07F
RIFLE          MOSUNNY   75  21  13 SW17G31   30.07F
MONTROSE       SUNNY     73  20  13 NW5       30.14F
CORTEZ         SUNNY     73  22  14 W15G24    30.19F
PAGE, AZ       SUNNY     81  20  10 VRB6      30.10F
GRAND CANYON   SUNNY     71  19  14 SW16G23   30.27F
KINGMAN        SUNNY     84  22  10 W14G20    30.12F
FLAGSTAFF      SUNNY     70   9   9 SW17G25   30.30F

$$

REGIONAL REPORTS    NEVADA/IDAHO/WYOMING

CITY           SKY/WX    TMP DP  RH WIND       PRES   REMARKS
LAS VEGAS, NV  SUNNY     88  21   8 VRB7      29.98F
ELY            SUNNY     70   9   9 N7G18     30.22F
ELKO           SUNNY     65  29  25 NW17G26   30.23S
POCATELLO, ID  MOSUNNY   59  25  27 W46G58    30.14F BLWGDUST
BURLEY         LGT RAIN  56  25  30 W30G39    30.22F
EVANSTON, WY   MOSUNNY   61  21  21 W31G39    30.17F
ROCK SPRINGS   MOSUNNY   68  21  16 W36G45    30.07F
KEMMERER       MOSUNNY   61  25  25 W33G43    30.15R

$$


USA.gov is the U.S. government's official web portal to all federal, state and local government web resources and services.